Simultaneous Nadir Overpasses (SNOs) Predictions

Prediction of SNOs between FY3D and METOP-C Satellite Orbit:

Table of predicted SNOs for the next 14.0 days since TLE Epoch: 6/11/2023
Index Date (FY3D) Time (FY3D) Lat,Lon (FY3D) SZA (FY3D ) Date (METOP-C) Time (METOP-C) Lat,Lon (METOP-C) SZA (METOP-C ) Distance(km) Time Diff (sec)
1 06/11/2023 14:46:23 -75.42, 133.37 127.70 06/11/2023 14:47:30 -75.36, 136.21 127.81 79.82 67
2 06/11/2023 15:37:04 75.18, -58.59 52.05 06/11/2023 15:38:14 75.14, -57.10 51.98 42.64 70
3 06/11/2023 16:27:46 -75.02, 109.20 128.13 06/11/2023 16:28:59 -75.00, 109.82 128.16 18.00 73
4 06/11/2023 17:18:29 74.87, -83.06 51.72 06/11/2023 17:19:41 74.88, -83.19 51.72 3.83 72
5 06/11/2023 18:09:15 -74.90, 84.17 128.26 06/11/2023 18:10:23 -74.88, 84.15 128.28 2.19 68
6 06/11/2023 19:00:01 74.89,-108.51 51.74 06/11/2023 19:01:02 74.90,-108.46 51.74 1.43 61
7 06/11/2023 19:50:46 -74.88, 58.86 128.29 06/11/2023 19:51:44 -74.91, 58.87 128.26 3.25 58
8 06/11/2023 20:41:32 74.87,-133.82 51.71 06/11/2023 20:42:24 74.88,-133.87 51.71 1.67 52
9 06/11/2023 21:32:18 -74.90, 33.41 128.27 06/11/2023 21:33:06 -74.88, 33.47 128.29 2.68 48
10 06/11/2023 22:23:04 74.89,-159.27 51.73 06/11/2023 22:23:45 74.90,-159.15 51.73 3.54 41
11 06/11/2023 23:13:49 -74.88, 8.10 128.30 06/11/2023 23:14:28 -74.86, 8.06 128.32 2.40 39
12 06/12/2023 00:04:35 74.87, 175.42 51.70 06/12/2023 00:05:07 74.88, 175.45 51.70 0.86 32
13 06/12/2023 00:55:20 -74.85, -17.21 128.33 06/12/2023 00:55:49 -74.88, -17.21 128.30 3.19 29
14 06/12/2023 01:46:06 74.85, 150.11 51.67 06/12/2023 01:46:29 74.85, 150.04 51.67 2.21 23
15 06/12/2023 02:36:52 -74.88, -42.66 128.31 06/12/2023 02:37:11 -74.86, -42.62 128.33 2.41 19
16 06/12/2023 03:27:38 74.87, 124.66 51.69 06/12/2023 03:27:50 74.87, 124.76 51.69 2.93 12
17 06/12/2023 04:18:23 -74.85, -67.97 128.34 06/12/2023 04:18:33 -74.83, -68.03 128.36 2.70 10
18 06/12/2023 05:09:09 74.85, 99.35 51.66 06/12/2023 05:09:12 74.85, 99.36 51.66 0.43 3
19 06/12/2023 05:59:54 -74.83, -93.28 128.37 06/12/2023 05:59:54 -74.86, -93.30 128.34 3.21 0
20 06/12/2023 06:50:40 74.82, 74.04 51.63 06/12/2023 06:50:34 74.82, 73.95 51.63 2.76 6
21 06/12/2023 07:41:26 -74.85,-118.73 128.35 06/12/2023 07:41:16 -74.83,-118.71 128.37 2.24 10
22 06/12/2023 08:32:12 74.85, 48.59 51.65 06/12/2023 08:31:55 74.85, 48.67 51.65 2.32 17
23 06/12/2023 09:22:57 -74.83,-144.04 128.38 06/12/2023 09:22:38 -74.81,-144.12 128.40 3.07 19
24 06/12/2023 10:13:43 74.82, 23.28 51.62 06/12/2023 10:13:17 74.82, 23.26 51.62 0.59 26
25 06/12/2023 11:04:28 -74.80,-169.35 128.41 06/12/2023 11:03:59 -74.83,-169.39 128.38 3.30 29
26 06/12/2023 11:55:14 74.80, -2.03 51.59 06/12/2023 11:54:39 74.80, -2.14 51.59 3.33 35
27 06/12/2023 12:46:00 -74.83, 165.20 128.39 06/12/2023 12:45:21 -74.81, 165.20 128.40 2.20 39
28 06/12/2023 13:36:46 74.82, -27.48 51.61 06/12/2023 13:36:00 74.82, -27.42 51.61 1.73 46
29 06/12/2023 14:27:31 -74.80, 139.89 128.42 06/12/2023 14:26:42 -74.83, 139.93 128.39 3.34 49
30 06/12/2023 15:18:17 74.80, -52.79 51.58 06/12/2023 15:17:22 74.80, -52.83 51.58 1.09 55
31 06/12/2023 16:09:03 -74.83, 114.44 128.40 06/12/2023 16:08:04 -74.81, 114.52 128.41 3.25 59
32 06/12/2023 16:59:48 74.77, -78.10 51.55 06/12/2023 16:58:44 74.77, -78.23 51.56 3.89 64
33 06/12/2023 17:50:33 -74.80, 89.13 128.43 06/12/2023 17:49:25 -74.78, 89.12 128.44 2.28 68
34 06/12/2023 18:41:19 74.80,-103.55 51.57 06/12/2023 18:40:04 74.80,-103.51 51.58 1.15 75
35 06/12/2023 19:32:02 -74.68, 64.08 128.56 06/12/2023 19:30:48 -74.71, 63.58 128.51 15.16 74
36 06/12/2023 20:22:42 74.39,-127.80 51.14 06/12/2023 20:21:33 74.43,-129.82 51.23 60.61 69
37 06/12/2023 21:13:26 -74.32, 39.68 128.93 06/12/2023 21:12:18 -74.30, 37.15 128.91 76.12 68



Historial Predications of SNOs between FY3D and METOP-C
